Погода в Оахака-де-Хуарес

Мексика     17°04′32″N   96°43′37″W
темп.,
°C
ветер,
м/с
пор.,
м/с
влажн.,
%
обл.,
%
осадки,
мм/ч
давл.,
гПа
погр.,
м
12 августа, пт
пт1201:00+15ссз229175 2.1 101823
04:00+15сз229057 0.9 101754
07:00+13сз229318 1.0 101818
10:00+19сз117110 0.1 1018592
13:00+23ююв115775 2.1 10151367
16:00+21ююв226584 4.2 1013872
19:00+20юв237676 9.1 1014225
22:00+17ююв2288100 3.6 101770
13 августа, сб
сб1301:00+16ююв119498 5.4 101888
04:00+15ю1196100 2.8 1017107
07:00+14с1197100 4.9 101840
10:00+17юв1186100 0.4 1019330
13:00+16вюв0189100 3.1 1018251
16:00+21ююв016198 0.3 1014764
19:00+20ююв3370100 0.9 1014462
22:00+16вюв1192100 2.4 101713
14 августа, вс
вс1401:00+16юв118995 5.3 101717
04:00+16с1191100 1.8 101616
07:00+14з019477 1.9 101611
10:00+19ююв117594 0.0 1017549
13:00+23юв235366 0.4 10141547
16:00+21ююв3465100 2.5 1013906
19:00+19ююв2379100 5.6 1013201
22:00+16ююв2388100 3.1 101656
15 августа, пн
пн1501:00+15ююв119251 3.6 101612
04:00+14зюз1193100 0.1 101512
07:00+13ссз11925 0.1 101510
10:00+19юв117196 0.0 1015483
13:00+24юв3349100 0.1 10121466
16:00+23ююв4455100 0.4 1010869
19:00+20ююв347696 2.9 1012155
22:00+17ююз1290100 3.4 101578
16 августа, вт
вт1601:00+16зсз1190100 3.9 101511
04:00+15зюз1190100 0.0 101312
07:00+14с119294 0.0 101411
10:00+19юв0072100 0.0 1015515
13:00+23юв2256100 1.4 10131183
16:00+23в3352100 1.8 10101481
19:00+18с2384100 4.5 1013106
22:00+17ссв1181100 1.6 101415